| time (UTC) | temp F | wind direction | speed knots | gust knots | rain 1hr in | rain 24hr in | rain mn in | humidity % | barometer mb |
| 20260508163045 | 55 | 24 | 6.1 | 9.6 | 0.00 | 1.26 | 0.00 | 80 | 1001.9 |
| 20260508161545 | 54 | 277 | 0.9 | 7.0 | 0.00 | 1.26 | 0.00 | 84 | 1001.7 |
| 20260508160043 | 52 | 293 | 4.3 | 8.7 | 0.00 | 1.26 | 0.00 | 88 | 1001.7 |
| 20260508154552 | 51 | 37 | 4.3 | 9.6 | 0.00 | 1.26 | 0.00 | 90 | 1002.1 |
| 20260508153039 | 51 | 339 | 3.5 | 9.6 | 0.00 | 1.26 | 0.00 | 90 | 1002.2 |
| 20260508151538 | 50 | 347 | 4.3 | 10.4 | 0.00 | 1.26 | 0.00 | 91 | 1002.2 |
| 20260508150043 | 50 | 328 | 4.3 | 12.2 | 0.00 | 1.26 | 0.00 | 92 | 1002.1 |
| 20260508144543 | 50 | 325 | 4.3 | 10.4 | 0.00 | 1.26 | 0.00 | 94 | 1002.1 |
| 20260508143042 | 50 | 12 | 3.5 | 13.9 | 0.00 | 1.26 | 0.00 | 96 | 1002.0 |
| 20260508141548 | 50 | 345 | 6.1 | 13.9 | 0.00 | 1.26 | 0.00 | 98 | 1002.2 |
| 20260508140040 | 49 | 331 | 7.0 | 13.0 | 0.00 | 1.26 | 0.00 | 99 | 1002.2 |
| 20260508134556 | 49 | 355 | 3.5 | 8.7 | 0.00 | 1.26 | 0.00 | 100 | 1002.2 |
| 20260508133041 | 47 | 321 | 5.2 | 9.6 | 0.00 | 1.26 | 0.00 | 100 | 1002.5 |
| 20260508131542 | 47 | 8 | 4.3 | 7.8 | 0.00 | 1.26 | 0.00 | 100 | 1002.4 |
| 20260508130043 | 46 | 353 | 3.5 | 7.8 | 0.00 | 1.26 | 0.00 | 100 | 1002.5 |
| 20260508124539 | 46 | 20 | 5.2 | 9.6 | 0.00 | 1.27 | 0.00 | 100 | 1002.3 |
| 20260508123044 | 45 | 340 | 6.1 | 10.4 | 0.00 | 1.27 | 0.00 | 100 | 1002.3 |
| 20260508121545 | 46 | 360 | 3.5 | 11.3 | 0.00 | 1.27 | 0.00 | 100 | 1002.2 |
| 20260508120053 | 45 | 12 | 6.1 | 11.3 | 0.00 | 1.27 | 0.00 | 100 | 1001.9 |
| 20260508114539 | 45 | 8 | 6.1 | 10.4 | 0.00 | 1.28 | 0.00 | 100 | 1001.9 |
| 20260508113039 | 45 | 21 | 3.5 | 10.4 | 0.00 | 1.28 | 0.00 | 100 | 1002.4 |
| 20260508111555 | 45 | 349 | 6.1 | 11.3 | 0.00 | 1.28 | 0.00 | 100 | 1002.4 |
| 20260508110057 | 45 | 343 | 6.1 | 10.4 | 0.00 | 1.28 | 0.00 | 100 | 1002.3 |
| 20260508104543 | 46 | 10 | 3.5 | 8.7 | 0.00 | 1.32 | 0.00 | 100 | 1001.9 |
| 20260508103049 | 45 | 10 | 5.2 | 9.6 | 0.00 | 1.32 | 0.00 | 100 | 1002.2 |
| 20260508101543 | 44 | 22 | 3.5 | 8.7 | 0.00 | 1.32 | 0.00 | 100 | 1002.4 |
| 20260508100045 | 44 | 8 | 1.7 | 6.1 | 0.00 | 1.32 | 0.00 | 100 | 1002.3 |
| 20260508094602 | 44 | 345 | 2.6 | 6.1 | 0.00 | 1.32 | 0.00 | 100 | 1002.3 |
| 20260508093043 | 44 | 353 | 3.5 | 6.1 | 0.00 | 1.32 | 0.00 | 100 | 1002.2 |
| 20260508091543 | 44 | 337 | 4.3 | 7.8 | 0.00 | 1.32 | 0.00 | 100 | 1001.9 |
| 20260508090041 | 44 | 343 | 3.5 | 7.8 | 0.00 | 1.32 | 0.00 | 100 | 1001.6 |
| 20260508084538 | 44 | 319 | 3.5 | 7.0 | 0.00 | 1.32 | 0.00 | 100 | 1001.7 |
| 20260508083055 | 45 | 331 | 2.6 | 6.1 | 0.00 | 1.32 | 0.00 | 100 | 1001.9 |
| 20260508081544 | 45 | 350 | 3.5 | 7.8 | 0.00 | 1.32 | 0.00 | 100 | 1001.8 |
| 20260508080038 | 45 | 331 | 5.2 | 8.7 | 0.00 | 1.32 | 0.00 | 100 | 1001.4 |
| 20260508074539 | 46 | 338 | 4.3 | 9.6 | 0.00 | 1.34 | 0.00 | 100 | 1001.4 |
| 20260508073045 | 46 | 343 | 5.2 | 10.4 | 0.00 | 1.34 | 0.00 | 100 | 1001.2 |
| 20260508071544 | 46 | 347 | 5.2 | 9.6 | 0.00 | 1.34 | 0.00 | 100 | 1001.3 |
| 20260508070040 | 46 | 328 | 4.3 | 7.8 | 0.00 | 1.34 | 0.00 | 100 | 1001.5 |
| 20260508064549 | 46 | 337 | 3.5 | 8.7 | 0.00 | 1.35 | 0.00 | 100 | 1001.5 |
| 20260508063044 | 47 | 307 | 4.3 | 7.8 | 0.00 | 1.35 | 0.00 | 100 | 1001.5 |
| 20260508061544 | 47 | 337 | 4.3 | 8.7 | 0.00 | 1.35 | 0.00 | 100 | 1001.4 |
| 20260508060042 | 47 | 317 | 3.5 | 7.0 | 0.00 | 1.35 | 0.00 | 100 | 1001.8 |
| 20260508054540 | 47 | 324 | 3.5 | 6.1 | 0.00 | 1.35 | 0.00 | 100 | 1001.3 |
| 20260508053038 | 47 | 336 | 2.6 | 5.2 | 0.00 | 1.35 | 0.00 | 100 | 1001.4 |
| 20260508051541 | 47 | 328 | 2.6 | 6.1 | 0.00 | 1.35 | 0.00 | 100 | 1001.4 |
| 20260508050043 | 47 | 334 | 3.5 | 7.8 | 0.00 | 1.35 | 0.00 | 100 | 1001.3 |
| 20260508044543 | 47 | 340 | 3.5 | 8.7 | 0.00 | 1.35 | 0.00 | 100 | 1001.5 |
| 20260508043046 | 47 | 351 | 2.6 | 7.0 | 0.00 | 1.35 | 0.00 | 100 | 1001.6 |
| 20260508041538 | 47 | 340 | 1.7 | 7.0 | 0.00 | 1.35 | 0.00 | 100 | 1001.7 |
| 20260508040041 | 46 | 341 | 3.5 | 8.7 | 0.00 | 1.35 | 0.00 | 100 | 1001.7 |
| 20260508034546 | 44 | 16 | 3.5 | 6.1 | 0.00 | 1.35 | 0.00 | 100 | 1001.5 |
| 20260508033045 | 45 | 312 | 2.6 | 4.3 | 0.00 | 1.35 | 0.00 | 100 | 1001.7 |
| 20260508031544 | 44 | 297 | 2.6 | 5.2 | 0.00 | 1.35 | 0.00 | 100 | 1001.9 |
| 20260508030051 | 44 | 268 | 1.7 | 3.5 | 0.01 | 1.35 | 0.00 | 100 | 1002.1 |
| 20260508024545 | 44 | 263 | 3.5 | 6.1 | 0.01 | 1.35 | 1.35 | 100 | 1002.1 |
| 20260508023049 | 44 | 189 | 1.7 | 3.5 | 0.01 | 1.35 | 1.35 | 100 | 1002.1 |
| 20260508021546 | 44 | 184 | 1.7 | 3.5 | 0.01 | 1.35 | 1.35 | 100 | 1002.2 |
| 20260508020044 | 44 | 176 | 1.7 | 3.5 | 0.00 | 1.34 | 1.34 | 100 | 1002.1 |
| 20260508014550 | 44 | 189 | 1.7 | 4.3 | 0.00 | 1.34 | 1.34 | 100 | 1002.3 |
| 20260508013045 | 44 | 140 | 1.7 | 3.5 | 0.00 | 1.34 | 1.34 | 100 | 1002.3 |
| 20260508011543 | 45 | 128 | 0.9 | 3.5 | 0.00 | 1.34 | 1.34 | 100 | 1002.1 |
| 20260508010045 | 45 | 120 | 1.7 | 3.5 | 0.00 | 1.34 | 1.34 | 100 | 1001.9 |
| 20260508004544 | 45 | 172 | 1.7 | 3.5 | 0.00 | 1.34 | 1.34 | 100 | 1002.2 |
| 20260508003057 | 45 | 0 | 1.7 | 4.3 | 0.00 | 1.34 | 1.34 | 100 | 1002.5 |
| 20260508001545 | 45 | 0 | 0.0 | 2.6 | 0.00 | 1.34 | 1.34 | 100 | 1002.3 |
| 20260508000044 | 45 | 179 | 0.0 | 5.2 | 0.00 | 1.34 | 1.34 | 100 | 1002.3 |
| 20260507234540 | 45 | 235 | 2.6 | 7.8 | 0.00 | 1.34 | 1.34 | 100 | 1002.3 |
| 20260507233038 | 45 | 179 | 2.6 | 7.8 | 0.00 | 1.34 | 1.34 | 100 | 1002.3 |
| 20260507231544 | 45 | 203 | 3.5 | 7.8 | 0.00 | 1.34 | 1.34 | 100 | 1002.0 |
| 20260507230044 | 45 | 172 | 5.2 | 9.6 | 0.00 | 1.34 | 1.34 | 100 | 1002.5 |
| 20260507224600 | 45 | 179 | 2.6 | 8.7 | 0.00 | 1.34 | 1.34 | 100 | 1002.7 |
| 20260507223050 | 46 | 168 | 3.5 | 8.7 | 0.00 | 1.34 | 1.34 | 100 | 1002.5 |
| 20260507221539 | 46 | 161 | 6.1 | 12.2 | 0.00 | 1.34 | 1.34 | 100 | 1002.8 |
| 20260507220038 | 47 | 160 | 5.2 | 13.9 | 0.00 | 1.34 | 1.34 | 100 | 1002.8 |
| 20260507214542 | 48 | 202 | 7.0 | 17.4 | 0.01 | 1.34 | 1.34 | 100 | 1003.0 |
| 20260507213043 | 48 | 167 | 5.2 | 13.0 | 0.01 | 1.34 | 1.34 | 100 | 1003.2 |
| 20260507211554 | 48 | 195 | 7.8 | 13.9 | 0.02 | 1.34 | 1.34 | 100 | 1002.9 |
| 20260507210041 | 48 | 201 | 6.1 | 15.6 | 0.07 | 1.34 | 1.34 | 100 | 1002.8 |
| 20260507204538 | 48 | 144 | 7.0 | 14.8 | 0.10 | 1.33 | 1.33 | 100 | 1002.3 |
| 20260507203044 | 48 | 124 | 7.0 | 12.2 | 0.19 | 1.33 | 1.33 | 100 | 1003.2 |
| 20260507201543 | 48 | 137 | 3.5 | 9.6 | 0.29 | 1.32 | 1.32 | 100 | 1003.7 |
| 20260507200047 | 48 | 151 | 3.5 | 13.0 | 0.40 | 1.27 | 1.27 | 100 | 1003.9 |
| 20260507194541 | 48 | 164 | 5.2 | 12.2 | 0.58 | 1.23 | 1.23 | 100 | 1004.2 |
| 20260507193039 | 47 | 147 | 6.1 | 12.2 | 0.64 | 1.14 | 1.14 | 100 | 1004.9 |
| 20260507191539 | 46 | 145 | 4.3 | 12.2 | 0.69 | 1.03 | 1.03 | 100 | 1005.4 |
| 20260507190045 | 45 | 207 | 6.1 | 17.4 | 0.69 | 0.86 | 0.86 | 100 | 1005.7 |
| 20260507184543 | 45 | 233 | 7.8 | 19.1 | 0.49 | 0.63 | 0.63 | 100 | 1005.6 |
| 20260507183040 | 45 | 157 | 8.7 | 17.4 | 0.37 | 0.49 | 0.49 | 100 | 1005.8 |
| 20260507181542 | 44 | 199 | 8.7 | 18.2 | 0.23 | 0.33 | 0.33 | 99 | 1006.2 |
| 20260507180045 | 46 | 145 | 6.1 | 19.1 | 0.07 | 0.17 | 0.17 | 100 | 1005.9 |
| 20260507174540 | 46 | 112 | 11.3 | 22.6 | 0.03 | 0.13 | 0.13 | 100 | 1005.4 |
| 20260507173044 | 46 | 184 | 8.7 | 20.9 | 0.02 | 0.12 | 0.12 | 100 | 1005.5 |
| 20260507171542 | 47 | 137 | 10.4 | 23.5 | 0.01 | 0.10 | 0.10 | 100 | 1006.1 |
| 20260507170043 | 46 | 162 | 10.4 | 20.9 | 0.01 | 0.10 | 0.10 | 100 | 1006.1 |
| 20260507164541 | 46 | 163 | 10.4 | 20.9 | 0.01 | 0.10 | 0.10 | 100 | 1006.6 |